Location: Codford Saint Peter
(51.1597°N, 2.0531°W)
Time: 01:44:02
(UTC+00:00)

SL-14 R/B - Pass Details

Date: 18 September 2020
Orbit: 519 x 554 km, 82.4° (Epoch: 29 October)

Event Time Altitude Azimuth Distance (km) Brightness Sun altitude
Rises 20:45:51 0° 349° (N) 2,674 7.5 -23.0°
Reaches altitude 10° 20:47:59 10° 350° (N) 1,784 6.5 -23.3°
Enters shadow 20:51:21 64° 357° (N) 592 3.5 -23.7°
